EW6664 Weather Reports


time (UTC)temp
C
wind
direction
speed
KPH
gust
KPH
rain 1hr
cm
rain 24hr
cm
rain mn
cm
humidity
%
barometer
mb
20260507182654 11 34 1.6 6.4 0.00 0.00 0.00 40 1007.6
20260507182149 11 0 4.8 9.7 0.00 0.00 0.00 40 1007.6
20260507181645 12 269 4.8 12.9 0.00 0.00 0.00 41 1007.6
20260507181142 11 8 9.7 14.5 0.00 0.00 0.00 41 1007.5
20260507180638 11 315 6.4 9.7 0.00 0.00 0.00 41 1007.4
20260507180136 12 278 4.8 11.3 0.00 0.00 0.00 42 1007.5
20260507175631 11 304 9.7 12.9 0.00 0.00 0.00 42 1007.5
20260507175124 11 127 3.2 11.3 0.00 0.00 0.00 40 1007.5
20260507174620 11 244 8.0 12.9 0.00 0.00 0.00 38 1007.6
20260507174119 11 307 6.4 11.3 0.00 0.00 0.00 42 1007.5
20260507173615 11 353 3.2 11.3 0.00 0.00 0.00 41 1007.8
20260507173112 11 26 6.4 11.3 0.00 0.00 0.00 42 1007.6
20260507172608 11 282 6.4 16.1 0.00 0.00 0.00 42 1007.6
20260507172106 11 267 8.0 12.9 0.00 0.00 0.00 42 1007.8
20260507171601 11 301 9.7 14.5 0.00 0.00 0.00 41 1007.6
20260507171058 11 306 8.0 12.9 0.00 0.00 0.00 43 1007.4
20260507170555 11 202 4.8 6.4 0.00 0.00 0.00 52 1007.6
20260507170052 11 161 8.0 11.3 0.00 0.00 0.00 44 1007.8
20260507165547 11 302 6.4 12.9 0.00 0.00 0.00 45 1007.8
20260507165044 11 304 8.0 12.9 0.00 0.00 0.00 42 1007.7
20260507164540 11 336 3.2 4.8 0.00 0.00 0.00 47 1007.8
20260507164037 10 223 8.0 9.7 0.00 0.00 0.00 49 1007.6
20260507163534 10 301 12.9 17.7 0.00 0.00 0.00 44 1007.9
20260507163032 10 321 9.7 14.5 0.00 0.00 0.00 50 1008.0
20260507162532 10 29 4.8 11.3 0.00 0.00 0.00 49 1008.0
20260507162029 10 302 6.4 12.9 0.00 0.00 0.00 48 1008.0
20260507161526 10 308 6.4 11.3 0.00 0.00 0.00 46 1008.4
20260507161023 10 276 6.4 14.5 0.00 0.00 0.00 51 1008.1
20260507160518 10 314 3.2 12.9 0.00 0.00 0.00 50 1008.5
20260507160015 10 314 9.7 16.1 0.00 0.00 0.00 50 1008.6
20260507155510 9 303 4.8 11.3 0.00 0.00 0.00 50 1008.2
20260507155008 10 278 8.0 11.3 0.00 0.00 0.00 46 1008.2
20260507154504 9 323 6.4 9.7 0.00 0.00 0.00 50 1008.4
20260507154001 9 244 6.4 12.9 0.00 0.00 0.00 52 1008.6
20260507153458 10 8 4.8 9.7 0.00 0.00 0.00 51 1008.6
20260507152954 9 292 3.2 4.8 0.00 0.00 0.00 50 1008.8
20260507152450 9 282 6.4 11.3 0.00 0.00 0.00 56 1008.7
20260507151947 8 278 4.8 11.3 0.00 0.00 0.00 55 1008.6
20260507151443 8 290 4.8 11.3 0.00 0.00 0.00 51 1008.9
20260507150940 8 342 6.4 12.9 0.00 0.00 0.00 52 1008.8
20260507150437 7 314 8.0 12.9 0.00 0.00 0.00 55 1008.9
20260507145933 7 274 4.8 12.9 0.00 0.00 0.00 55 1008.6
20260507145429 8 299 9.7 14.5 0.00 0.00 0.00 53 1008.8
20260507144926 8 29 1.6 9.7 0.00 0.00 0.00 58 1008.6
20260507144423 8 355 1.6 6.4 0.00 0.00 0.00 62 1008.6
20260507143920 8 284 6.4 9.7 0.00 0.00 0.00 63 1008.6
20260507143418 7 333 4.8 6.4 0.00 0.00 0.00 64 1008.8
20260507142914 7 2 6.4 9.7 0.00 0.00 0.00 67 1008.7
20260507142410 6 276 8.0 11.3 0.00 0.00 0.00 62 1008.6
20260507141907 6 286 3.2 4.8 0.00 0.00 0.00 65 1008.7
20260507141403 6 344 4.8 9.7 0.00 0.00 0.00 66 1008.7
20260507140900 7 326 6.4 9.7 0.00 0.00 0.00 67 1009.0
20260507140357 6 23 1.6 4.8 0.00 0.00 0.00 70 1008.9
20260507135854 6 1 3.2 4.8 0.00 0.00 0.00 70 1009.0
20260507135351 6 314 4.8 9.7 0.00 0.00 0.00 66 1009.1
20260507134849 6 253 3.2 9.7 0.00 0.00 0.00 69 1009.0
20260507134344 5 265 4.8 11.3 0.00 0.00 0.00 68 1009.0
20260507133841 5 333 4.8 6.4 0.00 0.00 0.00 69 1008.9
20260507133336 6 16 3.2 11.3 0.00 0.00 0.00 73 1008.9
20260507132835 6 310 4.8 9.7 0.00 0.00 0.00 72 1008.9
20260507132331 6 275 3.2 11.3 0.00 0.00 0.00 72 1008.7
20260507131828 6 356 6.4 9.7 0.00 0.00 0.00 73 1008.7
20260507131325 6 259 3.2 6.4 0.00 0.00 0.00 73 1008.7
20260507130822 5 308 6.4 6.4 0.00 0.00 0.00 74 1008.7
20260507130319 5 259 3.2 4.8 0.00 0.00 0.00 80 1008.9
20260507125818 5 151 1.6 3.2 0.00 0.00 0.00 80 1008.5
20260507125315 5 296 3.2 6.4 0.00 0.00 0.00 78 1008.5
20260507124812 5 68 1.6 3.2 0.00 0.00 0.00 81 1008.7
20260507124308 5 130 1.6 3.2 0.00 0.00 0.00 80 1008.6
20260507123807 5 133 1.6 3.2 0.00 0.00 0.00 82 1008.7
20260507123304 5 351 3.2 6.4 0.00 0.00 0.00 81 1008.6
20260507122800 5 306 3.2 4.8 0.00 0.00 0.00 80 1008.6
20260507122255 5 12 1.6 3.2 0.00 0.00 0.00 82 1008.9
20260507121751 5 262 1.6 4.8 0.00 0.00 0.00 80 1008.7
20260507121247 5 106 1.6 3.2 0.00 0.00 0.00 83 1008.6
20260507120743 5 23 1.6 3.2 0.00 0.00 0.00 85 1008.7
20260507120241 5 306 6.4 6.4 0.00 0.00 0.00 85 1008.6
20260507115737 5 51 1.6 4.8 0.00 0.00 0.00 86 1008.7
20260507115233 5 251 3.2 4.8 0.00 0.00 0.00 89 1008.7
20260507114728 5 16 1.6 4.8 0.00 0.00 0.00 92 1008.4
20260507114226 5 325 3.2 6.4 0.00 0.00 0.00 95 1008.2
20260507113723 5 262 1.6 3.2 0.00 0.00 0.00 97 1008.1
20260507113220 5 68 1.6 1.6 0.00 0.00 0.00 98 1008.1
20260507112718 5 41 1.6 1.6 0.00 0.00 0.00 99 1008.0
20260507112215 5 39 0.0 0.0 0.00 0.00 0.00 99 1008.1
20260507111712 5 39 0.0 1.6 0.00 0.00 0.00 99 1008.1
20260507111209 5 40 0.0 1.6 0.00 0.00 0.00 99 1008.1
20260507110704 5 56 0.0 3.2 0.00 0.00 0.00 99 1008.4
20260507110202 5 18 1.6 3.2 0.00 0.00 0.00 99 1008.2
20260507105659 5 10 1.6 9.7 0.00 0.00 0.00 99 1008.0
20260507105154 5 127 0.0 1.6 0.00 0.00 0.00 99 1007.9
20260507104652 5 126 1.6 3.2 0.00 0.00 0.00 99 1008.0
20260507104148 5 125 1.6 3.2 0.00 0.00 0.00 99 1007.8
20260507103644 5 90 0.0 1.6 0.00 0.00 0.00 99 1007.7
20260507103141 5 90 0.0 1.6 0.00 0.00 0.00 99 1007.6
20260507102637 5 90 0.0 0.0 0.00 0.00 0.00 99 1007.5
20260507102133 5 90 0.0 0.0 0.00 0.00 0.00 99 1007.9
20260507101630 5 90 0.0 0.0 0.00 0.00 0.00 99 1007.8
20260507101126 5 90 0.0 1.6 0.00 0.00 0.00 99 1007.7
20260507100623 4 86 0.0 1.6 0.00 0.00 0.00 99 1007.7
20260507100121 4 86 0.0 1.6 0.00 0.00 0.00 99 1007.8
20260507095619 4 75 0.0 0.0 0.00 0.00 0.00 99 1007.5
20260507095115 4 75 0.0 0.0 0.00 0.00 0.00 99 1007.5
20260507094611 4 71 0.0 0.0 0.00 0.00 0.00 99 1007.8
20260507094108 4 63 0.0 0.0 0.00 0.00 0.00 99 1007.6
20260507093606 4 75 0.0 1.6 0.00 0.00 0.00 99 1007.6
20260507093105 4 71 0.0 1.6 0.00 0.00 0.00 99 1007.6
20260507092600 4 69 0.0 0.0 0.00 0.00 0.00 99 1007.7
20260507092057 4 69 0.0 0.0 0.00 0.00 0.00 99 1007.7
20260507091554 4 75 0.0 0.0 0.00 0.00 0.00 99 1007.6
20260507091050 4 76 0.0 1.6 0.00 0.00 0.00 99 1007.7
20260507090546 4 75 0.0 1.6 0.00 0.00 0.00 99 1007.7
20260507090043 4 83 0.0 1.6 0.00 0.00 0.00 99 1007.4
20260507085540 4 83 0.0 1.6 0.00 0.00 0.00 99 1007.7
20260507085037 4 65 1.6 1.6 0.00 0.00 0.00 99 1007.7
20260507084533 4 72 1.6 1.6 0.00 0.00 0.00 99 1007.5
20260507084031 4 120 1.6 3.2 0.00 0.00 0.00 99 1007.4
20260507083527 4 97 1.6 3.2 0.00 0.00 0.00 99 1007.8
20260507083024 4 113 0.0 3.2 0.00 0.00 0.00 99 1007.9
20260507082520 4 121 0.0 3.2 0.00 0.00 0.00 99 1007.8
20260507082016 4 108 0.0 3.2 0.00 0.00 0.00 99 1007.9
20260507081513 4 118 0.0 1.6 0.00 0.00 0.00 99 1008.0
20260507081010 4 107 0.0 1.6 0.00 0.00 0.00 99 1007.8
20260507080506 4 66 0.0 0.0 0.00 0.00 0.00 99 1008.1
20260507080001 4 66 0.0 0.0 0.00 0.00 0.00 99 1008.1
20260507075457 4 64 0.0 1.6 0.00 0.00 0.00 99 1008.2
20260507074954 4 73 0.0 1.6 0.00 0.00 0.00 99 1008.1
20260507074451 4 73 0.0 0.0 0.00 0.00 0.00 99 1008.4
20260507073949 3 73 0.0 0.0 0.00 0.00 0.00 99 1008.1
20260507073445 3 73 0.0 0.0 0.00 0.00 0.00 99 1008.4
20260507072942 3 73 0.0 1.6 0.00 0.00 0.00 99 1008.1
20260507072439 3 73 0.0 0.0 0.00 0.00 0.00 99 1008.1
20260507071937 3 73 0.0 0.0 0.00 0.00 0.00 99 1008.1
20260507071434 3 73 0.0 0.0 0.00 0.00 0.00 99 1007.8
20260507070930 3 73 0.0 1.6 0.00 0.00 0.00 99 1007.7
20260507070428 3 73 0.0 0.0 0.00 0.00 0.00 99 1007.7
20260507065924 3 73 0.0 0.0 0.00 0.00 0.00 99 1007.8
20260507065421 3 73 0.0 1.6 0.00 0.00 0.00 99 1007.5
20260507064913 3 73 0.0 0.0 0.00 0.00 0.00 99 1007.6
20260507064411 3 73 0.0 0.0 0.00 0.00 0.00 99 1007.6
20260507063909 3 73 0.0 0.0 0.00 0.00 0.00 99 1007.5
20260507063406 3 73 0.0 0.0 0.00 0.00 0.00 99 1007.6
20260507062902 3 73 0.0 0.0 0.00 0.00 0.00 99 1007.8
20260507062358 3 73 0.0 0.0 0.00 0.00 0.00 99 1007.8
20260507061856 3 73 0.0 0.0 0.00 0.00 0.00 99 1008.0
20260507061354 3 73 0.0 0.0 0.00 0.00 0.00 99 1007.8
20260507060853 3 73 0.0 0.0 0.00 0.00 0.00 99 1007.9
20260507060349 3 73 0.0 0.0 0.00 0.00 0.00 99 1007.8
20260507055846 3 73 0.0 0.0 0.00 0.00 0.00 99 1008.0
20260507055340 3 73 0.0 0.0 0.00 0.00 0.00 99 1007.9
20260507054838 3 73 0.0 0.0 0.00 0.00 0.00 99 1007.9
20260507054334 3 73 0.0 0.0 0.00 0.00 0.00 99 1007.9
20260507053831 3 73 0.0 0.0 0.00 0.00 0.00 99 1008.1
20260507053329 3 73 0.0 0.0 0.00 0.00 0.00 99 1008.1
20260507052827 3 73 0.0 0.0 0.00 0.00 0.00 99 1008.2
20260507052324 3 73 0.0 0.0 0.00 0.00 0.00 99 1008.2
20260507051822 3 73 0.0 0.0 0.00 0.00 0.00 99 1008.2
20260507051319 3 73 0.0 0.0 0.00 0.00 0.00 99 1008.1
20260507050816 3 73 0.0 0.0 0.00 0.00 0.00 99 1008.5
20260507050312 3 73 0.0 1.6 0.00 0.00 0.00 99 1008.6
20260507045809 3 73 0.0 0.0 0.00 0.00 0.00 99 1008.9
20260507045306 3 73 0.0 0.0 0.00 0.00 0.00 99 1008.9
20260507044802 3 73 0.0 0.0 0.00 0.00 0.00 99 1008.8
20260507044259 3 73 0.0 0.0 0.00 0.00 0.00 98 1008.6
20260507043755 3 73 0.0 0.0 0.00 0.00 0.00 98 1008.9
20260507043252 3 73 0.0 0.0 0.00 0.00 0.00 98 1008.9
20260507042748 3 73 0.0 0.0 0.00 0.00 0.00 98 1008.8
20260507042243 3 73 0.0 0.0 0.00 0.00 0.00 98 1008.8
20260507041741 4 73 0.0 0.0 0.00 0.00 0.00 98 1008.9
20260507041237 4 73 0.0 0.0 0.00 0.00 0.00 98 1008.8
20260507040735 4 73 0.0 0.0 0.00 0.00 0.00 98 1008.7
20260507040230 4 73 0.0 1.6 0.00 0.00 0.00 98 1009.0
20260507035727 4 73 0.0 0.0 0.00 2.16 2.16 98 1009.0
20260507035222 4 73 0.0 0.0 0.00 2.16 2.16 98 1008.8
20260507034720 4 73 0.0 0.0 0.00 2.16 2.16 98 1008.9
20260507034217 4 73 0.0 0.0 0.00 2.16 2.16 98 1009.1
20260507033715 4 73 0.0 0.0 0.00 2.16 2.16 98 1009.1
20260507033212 5 73 0.0 0.0 0.00 2.16 2.16 98 1008.8
20260507032710 5 73 0.0 0.0 0.00 2.16 2.16 98 1008.8
20260507032205 5 73 0.0 0.0 0.00 2.16 2.16 98 1009.0
20260507031702 5 73 0.0 0.0 0.00 2.16 2.16 98 1009.0
20260507031159 5 73 0.0 0.0 0.00 2.16 2.16 98 1009.0
20260507030656 5 73 0.0 0.0 0.00 2.16 2.16 98 1009.3
20260507030154 5 73 0.0 0.0 0.00 2.16 2.16 98 1009.2
20260507025651 5 73 0.0 0.0 0.00 2.16 2.16 98 1009.1
20260507025147 5 73 0.0 0.0 0.00 2.16 2.16 98 1009.2
20260507024646 5 73 0.0 0.0 0.00 2.16 2.16 98 1009.5
20260507024142 5 73 0.0 0.0 0.00 2.16 2.16 98 1009.3
20260507023638 5 73 0.0 0.0 0.00 2.16 2.16 98 1009.1
20260507023136 5 73 0.0 0.0 0.00 2.16 2.16 98 1009.3
20260507022632 5 73 0.0 0.0 0.00 2.16 2.16 98 1009.1
20260507022127 5 73 0.0 0.0 0.00 2.16 2.16 98 1009.1
20260507021624 5 73 0.0 0.0 0.00 2.16 2.16 98 1009.2
20260507021120 5 73 0.0 0.0 0.00 2.16 2.16 98 1009.4
20260507020619 5 74 0.0 0.0 0.00 2.16 2.16 98 1008.8
20260507020114 5 74 0.0 0.0 0.00 2.16 2.16 98 1009.1
20260507015613 5 74 0.0 0.0 0.00 2.16 2.16 98 1009.3
20260507015110 5 74 0.0 0.0 0.00 2.16 2.16 98 1009.3
20260507014606 5 74 0.0 0.0 0.00 2.16 2.16 98 1009.3
20260507014102 5 73 0.0 1.6 0.00 2.16 2.16 98 1009.5
20260507013559 5 73 0.0 0.0 0.00 2.16 2.16 98 1009.1
20260507013056 5 73 0.0 0.0 0.00 2.16 2.16 98 1009.4
20260507012554 5 73 0.0 0.0 0.00 2.16 2.16 98 1009.3
20260507012049 5 73 0.0 0.0 0.00 2.16 2.16 98 1009.6
20260507011547 5 73 0.0 1.6 0.00 2.16 2.16 98 1009.7
20260507011038 5 73 0.0 0.0 0.00 2.16 2.16 98 1009.5
20260507010538 5 73 0.0 0.0 0.00 2.16 2.16 98 1009.2
20260507010034 5 73 0.0 1.6 0.00 2.16 2.16 98 1009.2
20260507005532 5 73 0.0 1.6 0.00 2.16 2.16 98 1009.3
20260507005028 5 73 0.0 1.6 0.00 2.16 2.16 98 1009.1
20260507004525 5 73 1.6 1.6 0.00 2.16 2.16 98 1009.0
20260507004023 5 73 1.6 1.6 0.00 2.16 2.16 98 1009.0
20260507003518 5 74 0.0 1.6 0.00 2.16 2.16 98 1008.9
20260507003013 5 74 0.0 1.6 0.00 2.16 2.16 98 1009.1
20260507002510 5 75 0.0 0.0 0.00 2.16 2.16 98 1008.9
20260507002006 5 75 0.0 1.6 0.00 2.16 2.16 98 1008.8
20260507001503 5 73 0.0 0.0 0.00 2.16 2.16 98 1008.6
20260507001000 5 73 0.0 0.0 0.00 2.16 2.16 98 1008.6
20260507000456 5 73 0.0 0.0 0.00 2.16 2.16 98 1008.5
20260506235952 5 73 0.0 0.0 0.18 2.16 2.16 98 1008.2
20260506235450 5 73 0.0 0.0 0.18 2.16 2.16 98 1008.1
20260506234945 5 73 0.0 0.0 0.00 2.13 2.13 98 1007.9
20260506234443 5 73 0.0 0.0 0.00 2.13 2.13 98 1007.9
20260506233940 5 73 0.0 0.0 0.00 2.13 2.13 98 1007.9
20260506233436 5 73 0.0 0.0 0.00 2.13 2.13 98 1008.0
20260506232933 5 73 0.0 0.0 0.00 2.13 2.13 98 1007.7
20260506232429 5 73 0.0 1.6 0.00 2.13 2.13 98 1008.1
20260506231925 5 73 0.0 1.6 0.00 2.13 2.13 98 1007.7
20260506231423 5 74 0.0 0.0 0.00 2.13 2.13 98 1007.7
20260506230920 5 73 0.0 0.0 0.13 2.13 2.13 98 1007.6
20260506230416 5 73 0.0 0.0 0.00 2.11 2.11 98 1007.7
20260506225913 5 73 0.0 1.6 0.00 2.11 2.11 98 1007.7
20260506225411 5 74 0.0 1.6 0.00 2.11 2.11 98 1008.0
20260506224907 5 53 1.6 3.2 0.00 2.11 2.11 98 1007.9
20260506224405 5 39 0.0 0.0 0.00 2.11 2.11 98 1008.0
20260506223900 5 38 0.0 1.6 0.00 2.11 2.11 98 1008.0
20260506223356 5 44 0.0 1.6 0.00 2.11 2.11 98 1007.7
20260506222853 5 44 0.0 1.6 0.00 2.11 2.11 97 1007.8
20260506222349 5 44 1.6 1.6 0.00 2.11 2.11 97 1007.7
20260506221847 5 46 0.0 1.6 0.00 2.11 2.11 97 1008.0
20260506221344 5 46 0.0 1.6 0.00 2.11 2.11 97 1007.9
20260506220842 5 46 1.6 1.6 0.00 2.11 2.11 97 1007.9
20260506220337 5 46 0.0 1.6 0.00 2.11 2.11 97 1008.1
20260506215834 6 46 0.0 1.6 0.00 2.11 2.11 97 1008.0
20260506215330 6 47 0.0 0.0 0.00 2.11 2.11 97 1007.8
20260506214826 6 65 0.0 1.6 0.00 2.11 2.11 97 1007.8
20260506214323 6 55 0.0 3.2 0.00 2.11 2.11 97 1007.7
20260506213821 6 62 0.0 0.0 0.00 2.11 2.11 97 1007.8
20260506213318 6 48 0.0 1.6 0.00 2.11 2.11 97 1007.7
20260506212815 6 48 0.0 1.6 0.00 2.11 2.11 97 1007.6
20260506212311 6 58 1.6 1.6 0.00 2.11 2.11 97 1007.2
20260506211806 6 44 1.6 3.2 0.00 2.11 2.11 97 1007.7
20260506211302 6 69 1.6 1.6 0.00 2.11 2.11 97 1007.5
20260506210800 6 70 1.6 3.2 0.18 2.11 2.11 97 1007.6
20260506210256 6 67 0.0 0.0 0.18 2.11 2.11 97 1007.6
20260506205754 6 69 1.6 1.6 0.00 2.08 2.08 97 1007.7
20260506205249 6 55 0.0 1.6 0.13 2.08 2.08 97 1007.8
20260506204746 6 55 0.0 1.6 0.13 2.08 2.08 97 1007.7
20260506204244 6 57 1.6 1.6 0.18 2.06 2.06 97 1007.6
20260506203742 6 62 0.0 1.6 0.18 2.06 2.06 97 1007.7
20260506203238 6 49 0.0 1.6 0.18 2.03 2.03 97 1007.6
20260506202736 6 48 0.0 1.6 0.18 2.03 2.03 97 1007.7
20260506202232 6 48 0.0 1.6 0.13 2.01 2.01 97 1007.6
20260506201729 6 86 0.0 1.6 0.13 2.01 2.01 97 1007.6
20260506201226 6 86 0.0 1.6 0.00 1.98 1.98 97 1007.5
20260506200723 6 87 0.0 1.6 0.18 1.98 1.98 97 1007.5
20260506200220 6 87 0.0 1.6 0.18 1.98 1.98 97 1007.7
20260506195716 6 87 0.0 1.6 0.00 1.96 1.96 97 1007.7
20260506195212 6 88 1.6 1.6 0.00 1.96 1.96 96 1007.6
20260506194710 6 91 1.6 1.6 0.00 1.96 1.96 96 1007.5
20260506194206 6 83 1.6 3.2 0.00 1.96 1.96 96 1007.4
20260506193704 6 36 0.0 1.6 0.00 1.96 1.96 97 1007.2
20260506193201 6 36 1.6 1.6 0.00 1.96 1.96 97 1007.2
20260506192657 6 33 1.6 3.2 0.13 1.96 1.96 97 1007.2
20260506192153 6 49 1.6 3.2 0.13 1.96 1.96 97 1007.1
20260506191651 6 69 0.0 1.6 0.00 1.93 1.93 97 1007.1
20260506191147 6 45 1.6 1.6 0.00 1.93 1.93 97 1007.1
20260506190644 6 46 0.0 1.6 0.00 1.93 1.93 97 1007.1
20260506190141 6 46 0.0 1.6 0.18 1.93 1.93 97 1007.1
20260506185638 6 56 1.6 1.6 0.18 1.93 1.93 97 1007.3
20260506185134 6 57 0.0 1.6 0.00 1.91 1.91 97 1007.3
20260506184632 6 57 0.0 0.0 0.13 1.91 1.91 97 1007.5
20260506184129 5 57 0.0 1.6 0.13 1.91 1.91 97 1007.8
20260506183625 5 57 0.0 1.6 0.00 1.88 1.88 97 1007.8
20260506183121 5 56 0.0 1.6 0.00 1.88 1.88 97 1007.7